Date,TemperatureHighF,TemperatureAvgF,TemperatureLowF,DewpointHighF,DewpointAvgF,DewpointLowF,HumidityHigh,HumidityAvg,HumidityLow,PressureMaxIn,PressureMinIn,WindSpeedMaxMPH,WindSpeedAvgMPH,GustSpeedMaxMPH,PrecipitationSumIn
2013-5-1,94.3,75.2,54.7,44.3,26.4,6.4,62,20,10,29.99,29.76,13,2,21,0.00
2013-5-2,97.9,71.6,45.9,87.4,36.5,22.3,78,38,10,30.04,29.94,5,0,10,0.00
2013-5-3,96.8,70.8,46.9,49.3,40.0,27.4,74,41,10,29.98,29.69,5,0,11,0.00
2013-5-4,95.7,68.1,48.7,54.0,44.5,27.1,84,54,10,29.69,29.44,9,1,15,0.00
2013-5-5,108.0,59.8,56.7,53.3,50.0,39.8,79,70,59,31.05,29.52,10,1,52,0.00
2013-5-6,76.1,62.2,50.4,54.5,50.6,46.9,90,68,41,29.87,29.71,7,0,13,0.00
2013-5-7,77.4,63.3,51.3,55.8,51.5,47.7,90,68,41,29.94,29.85,9,1,13,0.00
2013-5-8,71.6,58.1,52.0,56.2,51.3,48.0,92,79,57,30.03,29.93,7,1,11,0.00
2013-5-9,76.8,60.3,49.6,56.6,51.2,46.5,91,74,49,30.07,29.95,8,2,11,0.00
2013-5-10,79.3,62.6,52.9,59.2,52.7,48.5,88,72,48,30.08,29.97,8,2,15,0.00
2013-5-11,90.3,64.9,48.6,62.4,52.8,45.8,96,70,33,30.05,29.91,6,1,9,0.00
2013-5-12,87.3,65.7,47.3,63.3,53.3,45.9,97,68,39,30.04,29.89,8,1,11,0.00
2013-5-13,94.1,68.8,49.6,64.1,52.3,46.3,96,61,25,30.72,29.81,9,1,14,0.00
2013-5-14,92.7,70.9,52.2,56.3,47.5,29.6,83,50,12,29.87,29.74,10,2,14,0.00
2013-5-15,87.8,65.4,46.0,50.6,44.6,38.8,87,53,20,29.92,29.83,10,2,14,0.00
2013-5-16,79.7,66.6,56.3,53.7,50.0,44.4,76,57,34,29.90,29.80,9,1,14,0.00
2013-5-17,78.6,62.5,45.0,51.5,46.4,41.3,89,59,33,29.96,29.85,7,2,13,0.00
2013-5-18,86.7,65.7,43.9,51.3,45.0,37.0,89,54,20,30.01,29.93,11,3,14,0.00
2013-5-19,92.1,70.8,-11.2,50.1,41.5,-29.0,67,41,10,30.03,29.84,14,2,14,0.00
2013-5-20,95.4,73.3,53.4,52.7,43.7,27.9,78,44,10,29.90,29.77,7,1,13,0.00
2013-5-21,77.4,63.1,50.4,47.7,44.7,38.1,86,56,25,29.88,29.79,11,4,17,0.00
2013-5-29,95.4,92.2,81.7,51.5,35.0,27.9,34,14,10,30.13,30.03,7,3,11,0.00
2013-5-30,85.8,63.4,50.4,51.2,45.6,38.2,86,57,25,30.21,30.03,11,4,17,0.00
2013-5-31,92.1,71.7,55.4,51.2,43.5,26.1,67,42,10,30.29,30.12,13,3,14,0.00